Theta_e
287 286 285 284 283 282 282 281 281 281 281 281 281 281 281 280 280 279 278 278 278 279
286 285 284 283 282 282 281 282 281 280 280 280 280 280 279 279 278 278 277 277 277 278
284 283 283 282 281 280 281 281 280 279 279 279 279 279 278 277 277 276 276 277 277 277
283 283 282 281 280 280 280 279 279 279 279 278 277 277 276 276 276 276 276 276 276 276
283 282 281 280 279 279 279 279 278 278 278 277 277 276 276 275 275 275 275 276 275 275
282 281 280 279 279 278 278 277 277 277 277 276 276 275 275 275 275 275 275 275 275 275
281 281 280 279 278 278 277 276 276 276 276 275 275 275 275 276 275 275 275 276 275 274
281 281 280 279 278 278 277 276 276 275 274 274 274 275 274 275 275 275 275 275 275 275
282 281 281 280 278 277 276 275 275 274 274 273 274 278 279 277 275 275 275 274 274 274
282 281 280 279 278 276 275 274 274 273 273 273 273 279 280 279 276 275 274 274 274 274
281 281 280 278 277 276 275 274 273 273 272 272 273 278 280 279 275 274 274 273 273 273
282 281 279 278 276 276 274 273 272 272 270 270 271 278 279 278 274 273 273 273 273 273
283 281 279 279 276 274 274 274 273 273 271 270 268 276 278 278 273 268 271 272 273 276
281 281 280 278 275 274 273 272 270 270 269 268 269 268 277 278 274 271 269 270 271 273
Wind_Speed
11 8 8 8 8 7 7 6 6 6 6 7 6 6 5 4 5 6 5 6 5 3
9 10 9 9 7 7 7 6 7 7 7 6 6 6 7 5 5 5 4 4 4 3
9 9 9 9 9 8 7 8 8 7 7 6 6 6 6 4 4 5 3 2 4 2
10 10 8 8 7 8 8 8 8 7 7 6 6 5 5 5 5 4 2 1 1 2
11 10 9 8 7 7 9 7 7 7 6 6 5 5 6 5 3 2 1 1 1 2
12 11 10 9 8 8 9 7 6 6 7 6 6 5 5 4 3 2 1 1 3 3
12 11 11 10 9 9 8 8 7 6 6 6 5 5 5 4 3 2 2 3 3 4
11 10 10 10 9 9 8 7 7 7 6 5 5 4 5 4 4 3 4 4 4 5
13 12 12 10 10 9 8 8 7 7 7 6 4 9 11 7 4 4 4 5 4 4
13 12 12 11 11 10 10 7 7 7 7 7 6 12 12 11 4 4 4 5 5 5
14 13 11 12 12 10 8 10 7 8 7 6 6 13 13 13 5 5 6 5 5 6
14 14 13 14 12 9 8 7 7 5 7 7 5 14 14 10 4 6 5 5 5 6
14 14 15 13 12 7 7 9 7 7 7 7 6 13 14 11 4 4 4 4 6 10
12 14 13 11 7 9 9 6 6 6 4 6 6 7 14 15 6 5 4 5 5 5
Wind_Direction
139 145 144 139 136 127 126 127 127 110 100 94 94 99 97 89 78 68 66 65 55 57
140 141 132 122 122 136 131 127 123 111 104 99 93 87 81 81 83 82 77 76 58 58
135 125 124 131 139 142 137 126 115 106 102 94 84 96 98 99 94 88 60 85 57 38
135 129 127 140 149 147 129 118 114 123 121 123 124 114 113 117 106 101 88 46 58 357
139 139 144 148 151 139 124 121 131 131 135 137 139 137 132 125 110 136 181 306 337 302
149 152 155 156 152 137 127 127 131 140 151 159 158 144 131 140 157 202 237 275 268 285
161 162 163 159 151 141 140 145 158 167 162 163 153 150 160 159 197 229 268 274 270 267
162 160 161 159 154 150 150 156 158 160 170 164 165 174 169 184 204 235 261 263 265 253
166 167 169 164 160 157 155 158 160 178 176 180 190 195 198 193 197 223 242 251 252 258
170 170 174 166 164 170 170 164 172 186 183 193 193 210 210 218 203 216 230 242 258 262
173 175 170 170 180 172 171 175 181 196 195 190 206 216 217 220 207 224 230 237 247 253
176 174 173 184 181 179 173 177 192 184 189 194 202 218 222 223 200 229 240 251 250 254
180 180 184 184 181 175 180 192 188 199 192 190 195 224 228 232 187 216 241 248 253 256
179 180 184 177 172 177 180 167 186 194 178 187 186 221 235 241 224 222 212 227 232 231